Weather Roundup
Issued by NWS Corpus Christi, TX

Home | Current Version | Previous Version | Text Only | Print | Product List | Glossary On
Versions: 1 2 3 4 5 6 7 8 9 10 11 12 13 14 15 16 17 18 19 20 21 22 23 24 25 26 27 28 29 30 31 32 33 34 35 36 37 38 39 40 41 42 43 44 45 46 47 48 49 50
000
ASUS44 KCRP 022310
HRRCRP

SOUTH TEXAS REGIONAL WEATHER ROUNDUP
NATIONAL WEATHER SERVICE CORPUS CHRISTI TX
500 PM CST MON MAR 02 2015


TXZ229>244-030000-
...CORPUS CHRISTI AREA OBSERVATIONS...

CITY           SKY/WX    TMP DP  RH WIND       PRES   REMARKS
CORPUS CHRISTI DRZL/FOG  54  52  93 N8        30.15F VSB 1
NAS CORPUS CHR CLOUDY    54  53  97 N7        30.14F FOG
ROCKPORT       CLOUDY    57  52  83 NE6       30.15F HAZE
KINGSVILLE NAS FOG       53  53 100 N7        30.15F VSB 1/4
ALICE          CLOUDY    51  49  92 N5        30.15F FOG
FALFURRIAS     CLOUDY    52  49  90 N5        30.15F
$$

...VICTORIA AREA OBSERVATIONS...

CITY           SKY/WX    TMP DP  RH WIND       PRES   REMARKS
VICTORIA       CLOUDY    55  50  83 NE9       30.17F
BEEVILLE       CLOUDY    51  50  99 NE6       30.15F FOG
PLEASANTON     CLOUDY    46  45  93 NE3       30.18F FOG
SAN ANTONIO    CLOUDY    48  45  89 NE7       30.17F
$$

...LAREDO AREA OBSERVATIONS...

CITY           SKY/WX    TMP DP  RH WIND       PRES   REMARKS
LAREDO         LGT RAIN  48  47  97 NE7       30.17F FOG
COTULLA        CLOUDY    49  46  90 E6        30.16F FOG
DEL RIO        CLOUDY    51  43  74 SE6       30.12F
MCALLEN        CLOUDY    54  52  93 N7        30.15S FOG
HEBBRONVILLE   HVY RAIN N/A N/A N/A N5        30.15F
$$

...OTHER TEXAS OBSERVATIONS...

CITY           SKY/WX    TMP DP  RH WIND       PRES   REMARKS
BROWNSVILLE    FOG       58  56  93 N8        30.12F VSB 1
HOUSTON        CLOUDY    59  54  83 N5        30.18F
COL. STATION   FOG       45  44  97 N6        30.20F VSB 1
AUSTIN         CLOUDY    44  41  89 N8        30.20F FOG
WACO           CLOUDY    40  39  97 N6        30.22F FOG
FORT WORTH     CLOUDY    40  37  89 CALM      30.21F FOG
WICHITA FALLS  CLOUDY    37  31  78 SE3       30.19F FOG
LUBBOCK        FOG       33  32  96 S9        30.09F VSB 1
EL PASO        LGT RAIN  53  46  77 NW3       29.98R
$$

...MARINE OBSERVATIONS...

STATION/POSITION TIME  SKY/WX   TEMP    WIND        PRES    VSBY  WAVE   SWELL
                                AIR SEA DIR/SP/G                  HT/PER HT/PER
                 (UTC)          (F)     (DEG/KT/KT) (MB)    (MI)  (FT/S) (FT/S)
PORT ARANSAS     2300            54 55   20/  9/ 10 1020.8F
BUOY 90 E PORT A 2300            65 67   50/  8/ 10 1020.6F         3/ 8   3/ 8
BUOY 45 SE BAFFI 2300            66 66   60/ 14/ 14 1019.2F         4/ 5   2/ 7
BUOY 200 E PT IS 2300            72 72  100/  8/ 10 1020.2F         3/ 7   2/ 7
BUOY 15 E GALVES 2300            57 59   50/  8/ 10 1021.0F         2/ 6   2/ 6
$$


USA.gov is the U.S. government's official web portal to all federal, state and local government web resources and services.